Simultaneous Nadir Overpasses (SNOs) Predictions

Prediction of SNOs between GOES-15 and METOP-B Satellite Orbit:

Table of predicted SNOs for the next 14.0 days since TLE Epoch: 2/1/2019
Index Date Time (GOES-15) GOES-15 Lat,Lon METOP-B Lat,Lon Distance(km) Time Diff (sec)
1 02/02/2019 05:44:23 0.01,-127.75 0.79,-124.35 388.52 80
2 02/03/2019 18:03:16 -0.00,-127.79 0.26,-128.90 127.44 80
3 02/04/2019 17:45:17 -0.00,-127.82 -0.86,-123.91 445.53 80
4 02/06/2019 06:04:18 -0.01,-127.90 -0.16,-128.50 69.81 80
5 02/08/2019 17:59:53 0.02,-127.95 0.03,-128.08 14.69 80
6 02/11/2019 05:58:16 -0.02,-128.05 0.08,-127.69 42.20 80
7 02/12/2019 18:17:08 0.02,-128.06 0.98,-132.24 476.99 80
8 02/13/2019 17:59:10 0.02,-128.08 -0.15,-127.25 94.78 80
9 02/15/2019 06:18:11 -0.02,-128.15 -0.86,-131.85 421.13 80




NCC Satellite Simultaneous Nadir Overpasses (SNOs) Prediction Service
